Regional Weather Roundup
Issued by NWS Sioux Falls, SD

Home | Current Version | Previous Version | Text Only | Print | Product List | Glossary Off
Versions: 1 2 3 4 5 6 7 8 9 10 11 12 13 14 15 16 17 18 19 20 21 22 23 24 25 26 27 28 29 30 31 32 33 34 35 36 37 38 39 40 41 42 43 44 45 46 47 48 49 50

000
ASUS43 KFSD 021202
RWRFSD

WEATHER ROUNDUP FOR SE SOUTH DAKOTA/SW MINNESOTA/NW IOWA
NATIONAL WEATHER SERVICE SIOUX FALLS SD
700 AM CDT THU JUL 02 2015

NOTE: "FAIR" INDICATES FEW OR NO CLOUDS BELOW 12,000 FEET WITH NO
SIGNIFICANT WEATHER AND OR OBSTRUCTIONS TO VISIBILITY.


SDZ038>040-050-052>070-021300-
SOUTHEAST SOUTH DAKOTA

CITY           SKY/WX    TMP DP  RH WIND       PRES   REMARKS
BROOKINGS      CLOUDY    57  54  88 SE7       30.03R
CHAMBERLAIN    NOT AVBL
HURON          LGT RAIN  59  57  93 SE12      29.95F
6HR MIN TEMP:  59; 6HR MAX TEMP:  63; 6HR PCP:  0.04;

MADISON        CLOUDY    57  57 100 SE12      30.00F
MITCHELL       CLOUDY    61  58  90 SE9       29.98R
6HR MIN TEMP:  61; 6HR MAX TEMP:  65;

SIOUX FALLS    CLOUDY    58  53  84 E3        30.00S
6HR MIN TEMP:  58; 6HR MAX TEMP:  61;

WINNER         CLOUDY    70  66  87 SW7       29.92F FOG
YANKTON        CLOUDY    59  54  82 E8        29.96F
$$

MNZ071-072-080-081-089-090-097-098-021300-
SOUTHWEST MINNESOTA

CITY           SKY/WX    TMP DP  RH WIND       PRES   REMARKS
FAIRMONT       SUNNY     52  46  82 CALM      30.03R
JACKSON        PTSUNNY   54  50  87 E3        30.03R
LUVERNE        CLOUDY    59  54  82 CALM      30.02S
MARSHALL       PTSUNNY   54  46  76 SE5       30.01S
6HR MIN TEMP:  52; 6HR MAX TEMP:  57;

MONTEVIDEO     MOSUNNY   55  55 100 S3        30.03R
PIPESTONE      CLOUDY    57  55  94 SE3       30.02R
REDWOOD FALLS  MOSUNNY   55  52  89 CALM      30.02F
TRACY          PTSUNNY   53  51  92 CALM      30.02F
WINDOM         MOSUNNY   55  52  88 CALM      30.02S
WORTHINGTON    CLOUDY    55  50  82 SE3       30.02S
$$

IAZ001>003-012>014-020>022-031-032-NEZ013-014-SDZ071-021300-
NORTHWEST IOWA

CITY           SKY/WX    TMP DP  RH WIND       PRES   REMARKS
ESTHERVILLE    PTSUNNY   53  51  93 CALM      30.02S
SIOUX CITY     CLOUDY    60  55  83 E3        30.00R
6HR MIN TEMP:  59; 6HR MAX TEMP:  64;

SPENCER        CLOUDY    57  52  83 CALM      30.02R
6HR MIN TEMP:  51; 6HR MAX TEMP:  57;

$$

ABBREVIATIONS USED IN REMARKS
   TC - TEMPERATURE IN CELSIUS
  WCI - WIND CHILL INDEX
   HX - HEAT INDEX
  VSB - VISIBILITY



USA.gov is the U.S. government's official web portal to all federal, state and local government web resources and services.